METAR Formatted Surface Weather Observation
Issued by NWS

Home | Current Version | Previous Version | Text Only | Print | Product List | Glossary On
Versions: 1 2 3 4 5 6 7 8 9 10 11 12 13 14 15 16 17 18 19 20 21 22 23 24 25 26 27 28 29 30 31 32 33 34 35 36 37 38 39 40 41 42 43 44 45 46 47 48 49 50
000
SAUS42 KJAX 211753
MTRNRB
METAR KNRB 211752Z 27005KT 10SM BKN022 BKN060 BKN250 28/25 A3015 RMK
AO2 RAB12E48 TSE30 SLP208 T2 SET P0000 60000 T02830250 10317 20267
58003



USA.gov is the U.S. government's official web portal to all federal, state and local government web resources and services.